Location: Cabeza de los Veneras
(40.2000°N, 5.2000°W)
Time: 03:50:55
(UTC+00:00)

BlueWalker 3 - Pass Details

Date: 25 June 2024
Orbit: 480 x 491 km, 53.2° (Epoch: 21 July)

Event Time Altitude Azimuth Distance (km) Brightness Sun altitude
Rises 20:22:24 0° 270° (W) 2,540 6.5 -5.2°
Reaches altitude 10° 20:25:00 10° 287° (WNW) 1,660 6.0 -5.6°
Maximum altitude 20:27:50 20° 337° (NNW) 1,161 4.7 -6.1°
Drops below altitude 10° 20:30:41 10° 26° (NNE) 1,660 4.7 -6.5°
Sets 20:33:16 0° 44° (NE) 2,540 5.5 -6.9°
